Regional Weather Roundup
Issued by NWS

Home | Current Version | Previous Version | Text Only | Print | Product List | Glossary Off
Versions: 1 2 3 4 5 6 7 8 9 10 11 12 13 14 15 16 17 18 19 20 21 22 23 24 25 26 27 28 29 30 31 32 33 34 35 36 37 38 39 40 41 42 43 44 45 46 47 48 49 50

766
ASUS45 KPSR 032310
RWRAZ

ARIZONA HOURLY REGIONAL WEATHER ROUNDUP
NATIONAL WEATHER SERVICE PHOENIX AZ
400 PM MST SAT DEC 03 2016

NOTE: FAIR INDICATES FEW OR NO CLOUDS BELOW 12,000 FEET WITH NO
SIGNIFICANT WEATHER AND/OR OBSTRUCTIONS TO VISIBILITY.

AZZ001>003-036-040000-
NORTHWEST ARIZONA

CITY           SKY/WX    TMP DP  RH WIND       PRES   REMARKS
BULLHEAD CITY  SUNNY     61  12  15 N21G30    30.09S
KINGMAN        SUNNY     52   5  15 N14       30.10S
$$

AZZ004>008-015-016-018-040000-
NORTH CENTRAL ARIZONA

CITY           SKY/WX    TMP DP  RH WIND       PRES   REMARKS
GRAND CANYON   SUNNY     39  11  31 NE9       30.13R WCI  33
PRESCOTT       SUNNY     52  19  27 NW10      30.03S
FLAGSTAFF      SUNNY     40  12  32 NE17G26   30.06S WCI  31
PAYSON         SUNNY     50  19  29 N10       30.03S
PAGE           SUNNY     44   7  21 E3        30.13F
$$

AZZ009>014-017-040000-
NORTHEAST ARIZONA

CITY           SKY/WX    TMP DP  RH WIND       PRES   REMARKS
WINSLOW        SUNNY     47  18  31 NW9       30.09R
SAINT JOHNS    SUNNY     45  27  49 NW7       30.02S
SHOW LOW       SUNNY     37  21  52 N13       30.05R WCI  29
$$

AZZ023-040000-
GREATER PHOENIX AREA

CITY           SKY/WX    TMP DP  RH WIND       PRES   REMARKS
PHOENIX        SUNNY     69  23  17 W13       29.89S
BUCKEYE        SUNNY     68  21  17 SW6       29.94S
GLENDALE       SUNNY     70  27  19 SW8       29.92S
LUKE AFB       SUNNY     69  26  19 W8        29.90S
DEER VALLEY    SUNNY     70  23  17 N3        29.90S
SCOTTSDALE     SUNNY     69  24  18 W6        29.92S
MESA-FALCON    SUNNY    N/A N/A N/A W12       29.88S
MESA-GATEWAY   SUNNY     66  25  20 NW7       29.91S
CHANDLER       SUNNY     68  23  18 W9        29.90S
$$

AZZ027-028-040000-
SOUTHWEST MARICOPA COUNTY AND PINAL COUNTY

CITY           SKY/WX    TMP DP  RH WIND       PRES   REMARKS
CASA GRANDE    NOT AVBL
GILA BEND      SUNNY     66  21  18 N6        29.93S
$$

AZZ503-504-507>509-040000-
SOUTHEAST ARIZONA

CITY           SKY/WX    TMP DP  RH WIND       PRES   REMARKS
TUCSON         SUNNY     63  29  27 NW10      29.93R
DAVIS-MONTHAN  SUNNY     61  29  29 NW12      29.91R
RYAN FIELD     SUNNY     63  30  29 NW14      29.93S
NOGALES        MOSUNNY   58  32  37 NW7       29.90R
SIERRA VISTA   MOSUNNY   54  36  50 SE6       29.93S
DOUGLAS        CLOUDY    50  38  63 E15       29.94R
SAFFORD        SUNNY     59  37  44 S7        29.91R
$$

AZZ020-021-025-026-031-040000-
SOUTHWEST ARIZONA

CITY           SKY/WX    TMP DP  RH WIND       PRES   REMARKS
YUMA           SUNNY     68  13  12 N16G22    29.99R
$$

CAZ031-033-041-043-047-048-061-040000-
SOUTHERN CALIFORNIA

CITY           SKY/WX    TMP DP  RH WIND       PRES   REMARKS
DOWNTOWN L.A.  SUNNY     67  31  26 W6        30.04S
L.A. AIRPORT   SUNNY     64  24  21 W8        30.06S
SAN DIEGO      SUNNY     64  37  36 NW12      30.06S
BURBANK        SUNNY     66  15  14 SE6       30.04F
ONTARIO        SUNNY     66  10  11 W7        30.05S
RIVERSIDE      SUNNY     72  14  11 VRB6G16   30.04R
PALM SPRINGS   SUNNY     72   0   6 SE9       30.05S
EL CENTRO NAS  SUNNY     69   5   8 N22       30.03F
IMPERIAL       SUNNY     68  16  13 N15       30.02S
BLYTHE         MOSUNNY   68   9  10 N22       30.01S
NEEDLES        SUNNY     64   7  10 N28G37    30.06F
$$

NVZ020-UTZ003-040000-
SOUTHERN NEVADA-UTAH

CITY           SKY/WX    TMP DP  RH WIND       PRES   REMARKS
LAS VEGAS      MOSUNNY   57   4  12 E3        30.14F
SALT LAKE CITY MOCLDY    35  20  54 S7        30.26S WCI  29
$$

NMZ009-TXZ055-040000-
NEW MEXICO-WEST TEXAS

CITY           SKY/WX    TMP DP  RH WIND       PRES   REMARKS
ALBUQUERQUE    PTCLDY    48  27  44 NW6       29.97F
EL PASO        PTSUNNY   47  38  71 N6        29.94S
$$


........................KEY........................
SKY/WX - SKY CONDITION/WEATHER
TMP    - TEMPERATURE IN FAHRENHEIT
DP     - DEW POINT IN FAHRENHEIT
RH     - RELATIVE HUMIDITY IN PERCENT
WIND   - DIRECTION AND SPEED IN MILES PER HOUR (MPH)
VRB    - VARIABLE WIND DIRECTION
PRES   - MEAN SEA LEVEL PRESSURE IN INCHES OF MERCURY
         F - FALLING PRESSURE   R - RISING PRESSURE
         S - STEADY PRESSURE
VSB    - VISIBILITY IN MILES
HX     - HEAT INDEX IN FAHRENHEIT
WCI    - WIND CHILL INDEX IN FAHRENHEIT
TC     - TEMPERATURE IN CELSIUS WHICH IS ALSO KNOWN AS
         TEMPERATURE IN CENTIGRADE
AFB    - AIR FORCE BASE
         LUKE AFB IS LUKE AIR FORCE BASE
         DAVIS-MONTHAN IS DAVIS-MONTHAN AIR FORCE BASE
NAS    - NAVAL AIR STATION
         EL CENTRO NAS IS EL CENTRO NAVAL AIR STATION
N/A    - NOT AVAILABLE





USA.gov is the U.S. government's official web portal to all federal, state and local government web resources and services.